Theta_e
332 333 334 335 334 334 333 332 332 331 331 330 330 330 333 335 336 335 337 338 338 337 337 335 333 333 333 332 331 330 331 332 335 334 335 336 337 338 337 336 335 335 336 335 333 335 332 331 331 330 328 326 325 325 325 324 324 323 323 320 316 314 313 313 312 311 308 306 307 306 306 309 312 306 304 304 304 304 305 304 305 303 301 303 302
332 331 332 333 333 333 332 332 331 329 330 330 329 329 332 335 335 336 337 337 338 337 337 336 335 334 333 331 330 329 331 333 332 333 334 336 337 337 336 335 334 334 335 334 333 332 330 329 329 328 325 324 324 324 323 329 324 322 321 317 317 314 312 313 313 312 309 304 304 303 305 304 309 304 304 304 303 304 304 303 303 301 301 301 302
329 329 331 333 333 333 331 331 331 330 330 330 330 329 331 334 335 336 336 336 337 337 337 335 334 334 333 331 331 329 331 334 334 335 335 335 335 335 335 334 333 332 333 333 332 330 329 327 326 326 325 327 324 323 323 322 322 321 320 318 315 315 314 315 313 311 309 307 307 305 301 301 304 301 303 303 304 303 304 303 303 300 301 301 302
327 328 329 331 332 332 330 330 330 330 329 329 329 328 330 334 335 335 336 336 337 337 337 336 335 334 333 333 333 333 331 333 331 333 333 333 333 333 333 332 331 331 332 332 331 330 327 326 324 324 324 325 323 322 320 320 319 319 319 319 317 314 312 314 316 313 309 309 305 303 301 300 299 301 298 302 302 302 303 304 303 301 302 302 300
327 328 329 330 330 330 330 331 330 328 329 329 329 329 330 332 334 335 336 336 337 337 336 335 335 333 332 331 333 332 333 333 331 330 332 334 333 332 331 331 331 330 330 331 330 327 325 324 323 323 322 320 322 321 321 321 319 320 320 319 317 316 312 311 315 313 311 314 310 304 302 301 300 299 297 298 300 301 300 301 311 302 301 303 299
329 328 330 331 331 331 330 330 329 329 329 330 330 330 330 332 334 335 336 336 336 336 336 335 334 332 330 330 329 329 330 330 330 330 330 332 333 333 331 330 330 329 329 328 328 326 324 323 322 321 321 320 321 320 319 317 317 318 319 320 317 316 316 311 311 314 313 315 312 309 308 303 302 302 298 296 302 304 303 304 302 299 301 301 298
329 330 331 331 331 330 330 330 330 329 329 330 330 330 331 332 334 335 335 336 336 336 336 336 333 332 331 331 331 330 330 331 330 332 332 332 332 331 329 328 329 329 327 325 324 325 323 322 321 321 321 320 322 317 317 317 316 315 317 317 318 318 315 313 312 312 311 311 311 311 313 308 305 300 297 294 294 295 297 298 300 299 300 301 304
329 329 330 331 331 331 330 330 331 331 331 330 330 330 330 332 333 334 335 336 336 336 335 336 333 332 331 331 331 331 331 330 329 329 330 329 329 328 327 326 327 327 325 323 324 324 322 320 320 320 320 319 319 316 315 314 315 314 314 314 316 317 315 315 311 310 313 311 311 307 308 305 304 301 300 298 294 293 295 298 298 298 300 298 304
329 329 330 331 331 331 331 331 332 332 331 330 330 330 331 332 334 334 334 335 336 336 335 335 335 333 332 331 330 331 331 330 329 329 328 328 327 325 325 325 324 324 324 323 322 322 324 320 319 318 318 318 319 315 313 313 312 311 311 311 313 312 314 314 312 309 310 309 304 302 303 301 301 302 303 300 297 294 294 295 296 297 298 296 298
330 331 331 331 332 332 333 333 332 332 332 331 330 330 331 332 333 333 333 335 336 335 335 335 334 333 332 331 330 329 330 328 328 327 326 325 326 324 323 323 322 322 322 322 321 321 321 320 318 317 316 317 317 313 312 310 309 309 309 310 309 309 308 311 312 308 309 305 306 304 302 300 300 301 300 298 298 296 297 295 295 295 293 293 298
329 330 331 332 333 333 333 332 332 332 331 331 330 329 331 332 333 333 333 335 335 335 335 334 334 333 332 331 330 329 328 327 326 325 324 323 324 322 321 321 321 321 320 320 319 317 317 319 316 315 315 319 315 312 311 310 309 308 308 308 308 307 306 307 307 305 305 304 302 305 304 304 302 300 299 299 297 294 295 296 295 295 293 295 299
329 330 330 331 331 332 332 331 331 331 331 330 329 329 330 332 333 332 333 334 335 335 335 334 334 333 332 331 330 330 329 328 327 325 324 324 325 323 321 320 319 319 318 316 314 313 316 315 316 315 315 312 311 310 310 309 309 308 307 306 305 304 305 307 304 302 302 301 300 300 300 301 299 300 300 301 300 296 298 295 295 295 296 296 300
329 330 330 330 330 330 330 331 331 330 330 330 329 329 330 331 332 332 332 334 334 335 334 334 333 332 332 331 331 330 330 329 328 326 325 325 324 323 320 319 318 317 316 315 312 313 314 313 312 312 311 311 310 309 308 309 308 307 307 305 304 304 303 303 302 301 302 301 300 299 299 300 299 298 299 298 297 297 297 293 295 293 293 294 296
329 330 330 330 330 330 331 331 331 331 330 330 330 329 330 331 332 332 332 333 334 334 334 334 333 333 332 331 331 330 330 329 328 327 326 325 324 323 322 320 318 317 315 314 312 313 313 313 313 310 310 310 309 309 308 308 307 306 305 304 303 302 302 301 301 301 300 299 300 299 298 298 297 298 297 297 296 297 295 296 294 292 291 293 294
328 329 329 330 330 331 331 331 331 331 331 330 330 329 330 330 331 331 331 333 334 334 334 333 333 332 332 331 331 330 330 329 328 328 326 325 324 323 322 319 318 316 315 313 313 311 311 311 310 309 308 309 309 309 309 307 307 307 305 304 303 302 302 302 301 300 300 299 298 298 299 298 297 296 296 296 296 297 296 295 295 293 291 291 292
326 329 329 330 330 331 331 331 331 331 331 331 330 330 330 330 331 331 332 332 333 334 334 334 333 332 331 330 330 330 330 329 328 327 326 325 324 324 321 319 317 315 313 313 312 310 309 309 310 308 308 308 308 308 307 307 305 305 303 303 303 304 301 301 300 300 299 299 299 298 298 297 297 297 297 296 295 296 296 295 295 295 293 289 290
324 327 329 329 330 330 331 331 331 331 331 331 331 331 330 330 330 331 332 332 333 333 333 333 333 331 330 330 330 330 329 328 328 326 325 325 324 324 321 318 316 315 314 313 311 309 309 309 308 307 307 307 307 307 307 305 305 305 302 302 301 301 302 300 299 299 298 298 297 297 298 297 297 298 297 298 297 295 295 295 294 294 294 292 288
323 326 329 330 330 330 331 331 332 331 331 331 331 331 331 331 331 331 331 331 332 333 333 333 332 331 330 330 330 330 329 329 328 326 325 324 323 322 319 317 316 315 314 313 310 308 308 311 306 306 306 306 306 306 305 304 304 302 302 301 300 301 300 300 300 299 298 299 299 298 298 297 297 296 297 297 296 295 294 295 294 293 293 294 288
320 324 327 328 329 329 330 331 332 332 332 332 332 332 332 332 332 332 331 332 333 333 333 333 333 332 331 330 330 329 329 328 328 327 325 323 322 321 319 318 316 315 314 312 309 308 307 306 306 305 305 305 305 305 304 303 303 302 301 300 300 300 300 298 298 299 298 299 298 297 296 296 296 297 297 297 297 296 295 294 294 295 295 294 289
316 322 325 327 328 329 330 330 331 331 331 332 332 332 332 332 332 332 332 333 332 332 332 331 332 332 331 330 330 329 329 328 327 326 324 324 323 321 319 317 316 316 313 311 309 308 307 305 305 305 305 304 304 304 304 303 302 302 301 300 300 299 299 299 298 298 300 298 297 297 296 296 296 297 297 297 297 297 296 296 297 296 294 292 290
313 320 324 326 328 329 330 331 331 332 332 332 332 332 332 332 332 332 332 332 332 332 332 332 332 332 331 330 329 329 328 328 327 326 325 323 322 321 320 319 317 315 312 310 309 308 306 306 305 306 304 304 303 303 303 302 302 301 300 300 299 299 299 298 300 298 298 298 298 297 296 297 297 297 297 297 296 296 296 297 297 295 293 291 291
311 318 323 325 327 328 330 330 331 331 332 332 332 332 332 332 332 332 333 332 332 332 332 332 332 332 331 330 329 329 329 328 326 325 324 323 321 321 320 319 317 314 312 311 309 308 307 306 305 304 304 304 303 303 302 302 302 300 299 300 299 299 299 298 298 298 297 299 297 297 296 296 296 296 296 297 296 295 295 294 293 293 291 292 291
309 317 322 325 326 327 328 329 330 331 331 332 332 332 332 332 332 333 332 332 333 333 333 333 332 331 331 330 329 329 328 326 325 325 324 323 322 321 321 319 317 313 312 311 310 308 307 305 305 304 303 303 303 302 302 302 301 300 300 299 300 299 299 299 298 298 297 297 297 298 296 296 298 296 296 295 295 294 294 293 292 292 292 291 291
309 316 321 323 324 326 328 328 329 330 331 332 333 333 332 332 332 333 332 332 333 333 333 333 332 332 331 330 329 329 328 327 325 325 324 323 322 321 320 319 317 313 311 311 310 309 307 305 305 304 303 303 302 302 301 301 301 300 300 299 299 299 299 299 298 298 297 297 297 297 297 296 296 295 293 293 293 292 292 292 291 291 291 291 291
310 314 318 320 322 325 327 328 329 330 331 332 332 333 332 332 332 332 333 333 334 334 333 333 332 332 331 330 328 328 327 326 326 325 324 324 323 321 320 319 316 313 311 310 310 308 306 305 304 303 303 303 302 302 301 300 300 300 300 300 299 299 298 298 298 298 302 298 298 297 296 295 294 293 291 292 291 291 291 291 290 290 290 291 292
312 315 316 318 322 325 326 327 329 330 330 331 332 333 333 332 332 333 333 333 334 334 333 333 332 332 331 330 329 328 327 326 326 325 324 324 323 321 319 318 315 313 311 310 308 307 306 304 304 304 303 303 302 302 301 301 300 300 300 299 299 299 299 298 298 298 299 298 298 297 295 294 293 293 291 290 290 290 290 290 289 289 290 289 289
312 315 317 319 322 324 326 327 328 329 330 331 331 332 332 332 331 332 333 333 334 334 333 332 332 332 331 330 329 328 327 327 326 325 324 324 322 320 318 317 315 313 310 308 307 306 306 305 304 304 303 303 302 302 301 300 300 300 299 299 299 298 298 298 298 299 298 298 298 296 294 293 293 292 291 291 290 289 291 289 290 289 288 289 289
311 314 316 318 321 323 325 326 327 329 330 330 331 332 332 332 331 331 333 333 334 334 333 332 332 331 331 330 329 328 328 327 326 325 324 323 322 320 318 317 315 312 310 308 307 306 306 305 304 304 303 303 302 301 300 300 300 300 299 299 299 298 298 298 298 298 298 297 297 296 294 293 293 292 292 290 291 290 290 290 288 289 288 289 288
310 314 317 319 321 322 324 326 327 328 328 329 330 331 331 331 331 331 332 333 334 333 333 332 332 331 331 331 330 329 328 327 325 324 323 322 321 319 318 316 314 313 311 309 308 307 305 304 303 303 303 303 302 301 301 300 300 299 299 299 298 299 298 298 297 297 296 296 295 294 293 292 296 300 300 298 296 295 291 289 288 289 288 289 287
313 315 318 320 322 323 324 325 326 327 328 328 329 330 331 330 330 331 332 333 333 333 332 332 331 331 331 331 330 328 327 326 325 323 322 322 320 319 317 315 314 313 311 309 308 307 305 304 303 302 302 302 302 302 304 304 303 301 299 299 299 298 298 298 298 296 294 294 294 293 297 303 305 305 302 299 298 299 299 293 290 290 290 288 287
316 317 319 321 322 323 324 325 326 327 327 328 329 330 330 330 330 330 331 332 333 332 332 332 331 332 331 331 329 328 327 325 324 323 322 321 320 318 316 315 314 313 311 310 309 307 306 304 303 302 301 302 302 303 301 298 298 301 301 299 299 298 298 298 297 296 294 294 293 293 294 304 305 304 300 298 298 298 298 298 298 297 296 290 287
314 315 317 319 321 323 324 325 326 327 328 328 328 329 329 329 329 329 330 332 332 332 332 332 332 332 331 330 328 327 326 325 323 322 321 321 320 318 316 314 313 312 311 310 309 308 306 304 303 302 301 302 302 303 297 297 297 298 301 300 299 299 299 298 298 296 295 294 293 293 295 298 296 295 294 294 296 296 295 295 294 295 295 297 297
315 316 317 318 320 322 324 325 326 327 328 328 329 329 328 329 329 330 330 330 331 331 331 331 331 331 331 330 328 326 325 323 323 322 321 320 319 317 315 314 313 312 311 310 308 308 306 304 303 302 301 302 302 300 296 297 296 297 298 300 299 299 299 299 298 296 294 294 294 295 295 295 296 303 300 290 291 292 297 295 295 296 295 292 290
315 317 318 319 320 319 322 325 326 327 328 327 328 329 329 330 330 330 329 330 331 331 331 331 331 331 330 329 327 326 324 323 322 321 320 319 318 316 315 315 314 312 311 309 308 307 306 304 303 302 302 302 302 300 296 296 296 296 296 298 300 300 299 298 297 295 295 293 293 294 295 294 292 296 293 290 291 290 290 290 289 288 290 295 295
315 318 318 319 320 321 321 322 324 326 326 327 328 327 325 327 329 329 330 329 330 330 330 330 330 330 330 328 327 325 323 322 322 321 319 318 317 316 315 314 313 311 310 308 308 306 305 305 304 303 302 302 303 298 295 295 295 295 295 298 300 300 299 298 298 297 295 294 294 294 294 293 293 295 295 293 291 289 288 289 289 290 289 290 291
315 317 320 320 321 321 322 323 324 325 326 328 328 328 327 327 329 329 329 330 330 329 329 329 329 329 329 328 326 324 323 322 321 320 318 317 317 316 315 313 312 311 311 310 308 307 305 304 304 302 302 302 303 296 295 295 295 295 295 300 299 299 298 298 297 297 296 296 295 294 293 293 294 295 299 295 294 290 289 289 290 288 289 288 290
314 318 320 322 323 323 323 323 324 326 327 328 329 328 327 326 327 328 328 329 329 328 329 328 328 328 328 328 326 324 322 321 320 319 318 316 315 315 315 313 312 311 309 308 307 306 306 305 303 303 302 302 302 296 294 295 295 294 297 300 299 298 298 297 297 298 299 297 296 295 294 294 295 295 297 292 292 293 288 288 288 287 287 288 291
310 313 318 320 322 323 325 325 324 325 327 328 328 328 326 326 326 327 327 328 328 328 329 328 328 327 327 327 326 324 322 320 319 318 318 317 317 316 314 313 311 309 308 308 307 306 305 305 303 303 303 302 301 298 294 295 295 294 299 300 299 298 297 298 298 299 299 299 299 302 299 295 295 295 294 291 291 293 289 288 287 287 287 288 287
308 309 314 320 322 322 322 323 324 324 326 328 328 327 327 326 325 326 327 327 327 327 328 328 327 327 327 327 325 323 322 320 319 319 318 317 316 315 313 312 311 310 309 308 307 306 305 304 304 303 306 303 301 298 294 295 294 295 300 301 300 298 298 299 299 300 299 299 298 303 304 299 297 296 293 291 291 293 289 288 287 286 286 285 285
304 307 313 321 323 322 321 322 323 324 326 328 328 327 326 326 325 326 326 326 326 327 328 328 327 326 326 325 324 322 320 319 319 318 316 315 313 312 309 309 308 308 306 306 306 305 304 303 303 303 304 303 301 299 296 294 295 295 298 301 300 300 299 299 300 300 299 297 298 298 301 295 294 293 292 290 290 292 290 288 287 285 284 285 283
307 308 308 317 322 324 323 323 324 325 326 327 328 327 325 325 325 326 326 327 327 328 327 326 326 325 324 323 323 321 319 318 319 317 315 313 312 310 307 308 307 306 305 305 304 304 304 303 303 303 303 302 301 299 297 293 294 295 296 299 301 301 301 301 299 299 299 298 296 298 298 296 293 292 291 290 290 291 292 289 288 286 286 287 288
308 308 310 313 319 323 324 325 326 327 327 327 327 326 325 325 325 325 327 328 327 326 326 324 324 323 323 322 321 320 319 318 317 315 313 311 308 308 308 308 306 305 304 303 303 303 303 302 302 302 302 302 303 301 298 294 294 294 295 297 301 302 302 301 299 298 296 296 296 298 296 295 292 291 290 290 290 291 290 293 289 289 289 290 289
311 310 309 313 317 321 324 325 326 327 327 327 326 325 324 323 324 326 328 328 327 326 324 323 322 322 321 319 316 316 316 316 316 314 313 310 307 306 306 306 305 303 303 302 302 302 302 301 301 301 302 301 301 301 297 297 293 294 294 296 297 298 295 301 298 296 295 295 294 296 297 296 291 290 290 290 290 290 291 291 290 289 289 289 290
314 313 311 313 317 320 323 324 325 326 327 327 326 324 323 323 324 328 327 326 326 326 325 323 321 321 320 315 314 315 316 314 311 309 309 307 305 305 305 304 303 303 303 302 301 301 301 301 300 300 300 301 301 300 297 296 295 293 294 294 294 294 294 297 298 297 296 295 293 294 295 293 291 290 290 290 290 290 290 290 289 289 289 290 288
315 317 315 314 315 317 321 321 322 324 325 326 326 325 321 321 325 326 326 326 326 324 323 321 320 319 316 314 314 315 314 314 312 311 308 306 305 304 304 303 303 303 303 302 301 301 301 301 300 300 300 300 300 300 299 295 294 293 293 293 292 292 293 294 296 294 294 295 294 293 292 292 291 290 290 289 289 290 289 289 289 288 292 285 286
314 315 316 317 318 318 319 319 320 323 324 323 322 320 319 320 322 323 325 325 324 323 321 319 319 316 314 314 313 313 313 313 311 311 308 306 305 304 304 304 304 303 303 302 301 301 301 300 300 300 300 300 300 299 299 297 296 295 293 292 292 292 293 294 295 293 292 291 290 291 292 291 291 291 290 288 288 289 289 289 289 290 287 285 285
312 312 312 316 318 318 318 319 319 320 323 323 322 321 320 320 320 320 321 321 320 318 316 316 316 314 313 313 312 312 311 310 309 308 308 306 306 305 304 303 303 303 302 301 301 300 300 300 300 300 300 299 299 298 298 297 295 294 293 293 292 292 293 292 293 291 290 289 289 290 290 290 292 291 290 290 290 290 288 289 287 288 286 285 287
311 311 313 316 317 318 317 318 318 318 319 319 319 320 321 320 320 320 320 318 315 314 315 315 314 312 312 312 311 302 307 309 308 308 307 306 306 306 304 303 303 302 302 301 300 300 300 300 299 300 299 298 298 298 297 296 294 294 293 292 292 292 291 290 290 289 288 289 288 289 289 289 288 288 288 287 287 287 287 286 286 285 286 287 290
311 313 313 316 315 315 315 315 316 318 319 319 319 320 321 320 320 320 319 318 315 312 314 314 313 312 311 310 310 309 309 308 308 307 307 307 306 305 304 304 305 305 304 302 300 300 301 302 301 300 299 298 298 297 298 295 296 293 293 292 291 291 290 289 291 290 291 288 286 285 285 285 285 286 287 287 286 285 287 287 286 286 286 285 285
312 312 312 312 312 313 314 314 316 318 318 318 318 319 319 320 320 319 319 317 313 314 314 313 313 311 310 309 309 309 309 308 307 306 305 304 297 300 303 305 303 299 298 297 298 302 303 303 302 302 302 300 299 301 295 293 293 292 292 292 292 292 291 291 290 290 290 287 285 285 285 285 285 283 284 284 285 285 286 285 286 287 285 285 285
312 313 312 311 312 312 313 313 315 316 317 317 317 317 317 318 319 319 318 316 315 314 313 312 310 309 307 308 309 309 308 308 307 306 305 303 301 299 295 296 297 296 296 296 296 296 296 297 301 301 299 297 296 293 292 293 292 292 292 291 291 291 291 290 289 288 286 287 286 285 284 283 283 283 283 284 284 284 284 284 286 284 286 287 286
Wind_Speed
19 18 14 13 11 7 7 9 9 9 8 9 11 12 13 14 13 13 12 12 11 11 10 10 10 8 7 9 9 6 6 5 6 5 5 5 6 6 6 5 5 5 5 5 5 5 4 4 4 3 4 4 5 5 5 5 4 5 6 5 8 6 3 3 3 7 9 5 5 5 6 4 3 3 3 3 3 2 3 4 3 5 3 4 3
18 10 7 7 8 9 9 10 11 14 14 13 14 14 12 13 14 13 11 13 13 13 11 10 9 10 9 8 5 6 6 6 5 5 5 5 5 6 6 5 5 5 5 5 5 5 5 5 4 5 4 4 4 4 4 5 5 5 6 4 1 6 5 5 6 5 2 5 6 2 3 3 2 3 3 2 2 2 2 3 3 4 4 3 3
14 11 11 12 12 11 10 11 12 14 13 13 10 9 12 14 13 13 12 13 12 12 11 11 8 8 8 6 7 4 2 4 6 5 5 5 5 5 5 6 6 5 5 5 5 4 5 5 5 5 4 4 5 4 4 4 5 7 6 8 5 1 2 4 4 0 5 3 3 6 1 1 1 1 1 2 2 1 1 3 3 3 3 3 3
16 14 13 12 12 12 11 10 12 12 13 12 13 14 12 13 13 14 13 12 12 12 11 9 9 7 6 7 6 6 5 4 3 4 5 5 5 5 4 5 5 5 5 5 4 4 4 5 4 5 5 4 6 6 4 4 4 4 4 6 8 5 3 6 3 2 4 8 3 1 3 3 1 5 2 1 1 1 2 2 2 3 2 2 2
18 16 12 11 11 13 15 16 12 13 14 16 16 15 13 16 15 15 14 14 12 11 11 10 9 7 6 5 5 5 4 5 5 4 5 6 5 5 5 5 5 5 5 5 5 5 4 4 5 5 5 4 5 6 5 6 5 5 6 7 8 8 6 4 4 2 5 1 8 4 2 0 3 1 3 1 2 1 1 1 0 2 2 2 3
21 19 18 18 18 15 14 11 11 13 14 16 16 16 13 13 14 14 12 12 12 13 12 11 11 11 9 9 9 7 8 9 10 10 7 7 7 4 4 5 5 5 5 5 5 5 5 5 4 5 4 5 5 5 5 3 3 4 6 7 6 5 8 5 4 2 5 1 1 2 4 3 3 2 3 2 1 0 1 1 1 0 0 2 2
13 14 16 16 15 16 15 15 16 17 17 15 13 14 14 14 14 15 14 12 12 13 13 12 12 11 13 12 10 10 10 7 5 6 8 6 5 6 5 4 4 6 5 4 5 5 5 4 5 4 4 4 3 5 5 5 5 4 4 5 6 6 4 7 7 5 1 2 0 1 2 1 7 6 3 2 0 2 1 0 1 1 1 1 2
16 15 13 15 19 21 21 20 18 19 18 13 14 14 16 17 15 14 11 12 12 12 14 13 13 11 12 12 10 10 10 9 7 6 5 6 6 6 5 5 4 5 6 5 5 5 5 5 4 4 4 4 4 5 5 4 4 2 2 4 5 6 7 7 6 6 7 4 1 2 3 3 3 4 4 6 5 4 2 1 1 2 0 1 0
17 16 17 17 16 16 18 19 20 20 14 15 17 17 15 13 13 12 13 12 11 14 14 13 13 13 12 10 10 7 8 7 6 6 7 6 7 5 5 5 5 4 4 5 5 5 4 5 4 4 4 4 3 4 3 4 5 5 4 4 5 5 5 5 6 7 5 5 4 2 4 4 3 3 4 4 3 3 1 3 3 1 0 2 1
17 19 19 18 18 18 18 19 18 16 15 14 11 10 12 12 14 15 14 12 12 14 14 14 13 12 12 12 12 8 7 6 7 7 6 6 7 6 4 5 5 5 4 4 4 4 4 4 4 5 5 4 3 5 4 3 3 3 4 4 4 5 3 4 6 6 6 4 4 6 4 2 2 2 1 3 3 1 5 4 4 5 3 2 1
15 16 16 18 19 20 19 19 19 14 8 9 12 13 12 13 15 15 15 12 13 14 14 15 13 12 12 13 13 12 11 10 9 7 7 6 7 7 5 4 4 5 5 4 4 4 4 4 4 4 4 4 5 5 5 5 3 3 3 3 3 5 5 4 3 3 3 3 3 6 7 8 7 5 6 4 3 2 2 0 1 3 3 1 2
16 16 16 15 14 16 16 18 15 13 11 12 12 12 13 14 14 16 14 14 14 15 15 15 13 13 12 12 13 12 13 11 12 11 10 10 10 9 6 7 6 5 4 5 4 4 5 4 4 5 5 5 5 3 3 4 4 3 3 3 3 3 3 4 4 5 4 4 3 3 4 4 3 4 6 6 7 5 5 4 3 1 1 1 2
16 17 16 16 17 17 15 14 11 12 14 17 17 16 15 14 16 17 17 15 16 15 16 16 14 13 12 12 12 11 12 12 12 11 10 10 9 8 7 7 6 6 6 6 5 5 5 6 5 6 5 4 5 4 3 4 4 4 4 3 4 4 5 5 6 4 6 6 5 2 4 3 3 2 5 6 2 5 6 5 0 1 2 1 1
16 16 16 17 17 16 17 17 17 15 16 16 17 16 15 15 17 18 18 15 14 15 16 15 15 13 12 12 11 11 12 12 11 11 10 9 9 10 9 9 9 8 7 7 6 5 4 5 6 5 5 5 5 4 4 4 4 5 4 5 4 3 4 4 6 5 5 4 5 6 3 5 3 3 4 6 6 6 4 6 4 3 2 2 1
16 16 17 17 18 18 17 16 16 16 17 16 14 16 15 15 17 18 16 16 17 17 15 16 14 13 12 12 11 10 11 10 10 10 10 9 7 7 7 6 8 7 8 6 6 6 5 5 5 6 5 5 5 5 4 4 4 4 4 4 4 3 5 6 5 6 7 5 4 5 5 5 4 3 4 4 5 5 7 7 8 7 3 4 3
16 16 17 19 20 19 17 16 16 16 17 15 16 16 16 17 18 19 20 19 17 16 15 15 13 11 11 12 12 12 10 10 9 8 9 10 12 11 9 8 6 7 5 7 6 6 7 6 5 6 5 5 5 5 5 5 4 6 5 5 5 2 6 6 5 6 6 5 6 4 6 4 3 3 3 4 2 3 5 4 5 8 9 3 1
16 17 17 18 16 16 17 18 17 16 15 17 19 19 21 19 17 18 17 15 16 17 16 14 12 12 12 12 11 12 13 13 11 11 11 11 12 10 8 7 7 7 7 6 7 5 6 7 6 6 5 5 5 5 5 5 5 5 6 5 6 4 5 6 5 6 5 5 5 5 6 5 3 3 4 4 4 3 3 4 4 6 7 8 4
17 19 20 21 20 20 19 17 18 19 20 21 21 18 17 16 19 20 18 18 17 16 15 14 14 14 13 13 13 13 12 12 11 12 11 10 9 8 7 7 8 8 8 6 7 7 6 6 7 6 5 5 6 5 5 5 5 5 5 5 4 5 6 4 4 6 5 5 5 5 5 6 3 4 4 3 3 3 5 4 4 3 4 8 5
16 17 16 17 18 18 19 20 20 19 19 19 18 16 14 14 15 17 19 20 18 14 12 11 12 10 11 12 13 12 11 11 10 11 11 11 11 9 10 9 8 8 8 8 7 7 6 6 6 6 5 5 5 5 5 5 5 6 4 6 4 5 6 5 3 5 4 6 6 6 4 5 3 4 4 3 3 3 5 5 5 5 4 5 7
15 16 17 17 18 20 21 21 19 18 16 14 15 14 16 16 15 15 13 11 11 13 13 14 13 12 11 10 11 11 11 11 11 12 11 12 12 11 10 9 10 8 8 8 8 8 7 7 6 7 6 5 5 4 5 5 5 5 6 6 5 5 6 6 4 3 4 5 6 6 4 4 3 4 4 4 4 3 3 5 5 5 5 4 6
15 16 17 18 19 19 20 19 16 14 11 11 13 16 16 14 14 15 17 17 16 15 15 14 13 13 13 14 13 12 13 11 11 12 12 11 10 10 11 10 9 9 9 9 8 8 7 7 7 7 7 7 6 6 4 5 5 5 4 5 5 5 7 5 5 4 4 5 5 5 4 3 3 6 4 5 5 5 5 5 5 5 6 3 5
16 17 18 18 19 21 19 13 10 11 13 16 16 14 13 15 15 15 14 14 15 14 14 14 13 13 14 14 14 12 12 11 12 12 11 11 10 10 10 9 10 9 9 9 9 7 7 8 7 7 7 6 6 6 5 5 6 6 5 4 6 6 6 5 5 5 4 4 5 6 4 3 3 6 4 5 5 5 5 6 5 6 5 3 1
14 17 18 19 21 20 16 17 18 19 18 18 16 16 17 17 16 15 17 17 17 16 14 13 13 13 14 13 13 13 13 13 13 11 12 11 11 11 11 11 10 9 8 9 9 8 8 8 7 7 7 6 7 6 5 6 6 7 7 5 5 6 7 7 6 6 5 4 5 5 4 4 3 6 4 4 4 5 5 7 5 4 5 4 4
12 14 16 19 19 13 12 14 14 14 13 16 17 17 15 15 16 15 17 17 16 14 14 14 13 14 13 13 13 13 14 14 13 11 13 12 11 11 11 11 10 9 9 7 8 9 8 8 8 7 7 7 6 6 6 5 7 7 7 7 5 5 6 6 6 6 5 5 6 6 4 4 5 6 4 4 4 5 6 5 5 3 5 5 4
12 14 16 15 10 12 15 16 17 17 17 17 17 17 17 17 16 16 16 16 15 14 14 14 15 15 14 14 14 14 14 15 15 12 13 12 12 11 10 11 10 9 9 8 7 7 8 8 8 8 7 7 7 7 7 5 5 5 7 7 6 6 5 5 5 6 6 6 6 6 5 4 6 7 4 5 4 5 4 5 5 4 5 4 3
14 16 15 13 12 13 14 16 16 16 17 18 18 17 17 17 18 17 16 15 15 14 15 15 14 15 14 15 15 14 15 15 15 13 14 13 11 11 11 9 11 11 9 9 10 8 8 8 8 8 8 8 7 7 7 7 7 6 6 6 6 5 5 5 5 5 5 5 6 6 5 5 6 7 5 4 5 6 4 5 5 4 4 4 5
13 15 17 14 11 15 17 17 17 17 17 16 17 18 17 17 17 15 14 15 15 15 15 15 14 15 14 15 15 15 14 14 14 13 12 11 11 11 12 11 10 11 11 10 8 9 7 8 8 8 8 8 8 7 7 7 7 6 6 6 6 5 5 5 5 5 4 4 5 6 5 5 6 6 7 6 5 5 5 5 5 5 4 5 4
11 11 10 12 15 16 17 18 17 16 15 14 14 16 17 17 18 16 15 14 13 15 15 15 15 15 15 16 15 14 13 13 12 12 13 12 12 12 12 11 11 11 11 11 11 10 8 7 8 8 8 8 8 7 7 7 7 7 7 6 6 6 6 5 5 4 4 5 5 5 5 5 6 6 6 5 6 6 4 5 4 4 4 5 4
11 13 13 13 13 14 14 15 16 16 17 17 15 15 13 12 12 14 14 16 15 15 16 15 15 15 15 15 13 12 12 12 13 13 13 12 12 12 12 12 12 11 9 10 10 10 9 8 7 8 8 7 8 8 7 7 8 7 6 7 6 6 6 6 5 4 4 5 5 5 5 5 4 7 9 7 7 7 6 6 3 4 4 5 3
11 13 14 15 16 16 16 16 15 17 17 16 15 16 16 16 16 15 14 14 13 14 15 15 16 15 14 13 13 12 13 13 13 14 15 14 12 12 12 12 12 12 11 10 10 9 10 11 10 8 8 7 7 6 8 13 10 8 7 6 6 6 6 6 6 5 4 4 5 5 5 9 9 10 9 9 9 8 7 7 6 5 4 4 4
6 9 12 14 15 15 14 15 16 17 18 18 17 17 15 15 14 15 16 15 15 15 15 15 15 14 13 13 13 13 13 14 14 13 13 14 14 13 13 12 12 11 12 11 11 11 10 10 11 10 9 8 7 7 13 14 14 14 9 7 7 7 6 6 6 6 6 5 4 4 4 6 7 7 7 10 9 8 8 8 8 7 6 5 4
4 3 4 5 8 11 14 15 16 16 16 15 15 14 14 15 15 16 15 13 14 15 15 15 14 13 13 14 13 13 14 14 14 14 14 14 12 11 12 13 12 12 11 10 12 12 11 10 9 9 9 8 8 10 15 15 14 15 12 9 7 7 6 6 6 6 6 5 5 4 3 3 5 5 5 5 6 6 7 6 6 6 5 6 5
4 4 4 4 6 8 11 13 13 13 14 14 15 15 16 16 16 15 13 14 15 15 15 14 13 13 13 13 13 14 14 14 14 14 13 13 12 12 12 13 14 13 11 12 10 8 9 9 9 10 9 8 8 12 15 15 15 15 15 11 7 7 8 7 8 8 6 6 5 5 4 3 4 9 5 4 4 3 3 5 5 5 5 6 7
3 5 6 4 5 4 5 7 8 8 8 6 7 11 13 14 14 13 15 15 15 15 15 14 14 14 14 13 13 14 14 14 13 13 13 13 14 14 14 13 13 12 12 11 13 14 11 11 11 11 10 9 8 12 16 16 15 16 15 11 8 9 8 8 8 7 7 7 6 6 6 4 3 3 4 4 3 4 3 3 2 2 2 1 3
3 6 7 8 7 8 8 7 7 9 10 10 9 6 3 5 9 12 12 13 13 13 13 13 14 14 14 14 13 14 14 14 14 14 13 14 14 14 14 13 12 13 13 13 13 12 11 11 10 10 9 10 8 14 16 16 15 15 15 12 7 7 7 7 7 7 8 8 7 7 7 7 6 4 5 5 5 4 4 3 3 1 1 1 1
4 4 8 10 11 12 12 10 7 9 8 9 10 7 7 8 9 11 12 13 13 13 13 12 13 13 14 15 15 14 14 15 15 14 14 14 14 15 16 13 12 11 11 11 11 11 12 12 11 10 10 10 8 16 16 16 16 15 15 8 8 8 7 7 6 6 7 8 7 7 7 6 6 6 6 10 8 5 4 4 3 1 1 1 1
5 4 5 5 10 12 11 10 9 9 10 11 10 10 8 6 8 10 11 12 13 13 14 14 14 14 14 14 15 16 14 15 15 15 15 15 14 13 13 11 12 11 12 12 12 12 11 11 11 11 11 10 8 14 17 17 17 18 13 7 7 7 7 8 8 8 7 6 6 6 7 6 6 6 7 10 10 8 4 4 4 2 0 0 2
6 5 4 4 4 4 9 12 11 11 10 9 10 12 11 10 10 10 11 12 13 15 15 14 14 14 14 15 14 15 15 14 15 16 16 16 16 15 15 13 14 12 12 12 12 10 10 10 12 12 12 11 10 13 18 18 17 16 14 10 8 8 7 8 8 7 6 6 6 11 8 7 7 7 9 11 11 8 5 4 4 3 2 1 2
11 9 8 6 6 6 7 5 9 11 10 11 12 14 13 13 12 12 13 14 14 15 14 15 14 13 13 14 14 13 14 16 16 16 16 17 17 15 12 10 10 11 11 10 8 10 9 8 10 10 9 11 10 12 16 17 17 17 13 8 8 8 8 7 7 7 5 6 5 8 12 10 9 9 12 12 12 8 5 5 5 4 3 2 3
5 9 9 9 8 5 4 7 8 9 10 13 14 14 15 14 14 13 13 15 15 16 14 11 10 11 11 12 12 13 11 13 16 15 11 10 8 7 6 9 8 8 9 10 11 10 11 10 9 9 10 11 11 10 13 17 18 18 17 10 8 9 9 8 7 7 7 5 5 6 9 13 13 12 13 14 13 11 7 5 4 4 4 3 3
12 10 4 6 6 9 10 11 11 13 12 12 12 14 14 14 14 14 16 16 15 12 9 10 9 10 10 12 12 13 12 12 15 15 13 11 10 8 9 12 12 9 9 8 8 7 8 7 7 8 9 9 10 12 12 17 18 18 17 15 9 10 9 9 8 7 6 6 6 6 6 10 13 12 14 14 13 12 8 6 6 5 6 3 6
6 9 3 4 4 6 8 11 13 15 15 14 14 15 15 14 13 16 18 15 10 9 9 9 10 11 11 11 12 11 16 15 10 9 8 7 5 7 9 9 8 7 9 9 8 10 10 8 7 8 9 10 9 14 12 15 17 17 17 17 10 9 10 9 8 7 6 6 7 7 6 9 13 13 14 14 14 12 11 5 7 8 6 7 4
2 2 4 5 5 7 11 13 11 12 13 13 14 15 15 15 16 19 16 11 10 10 10 11 11 12 12 11 11 13 10 7 11 13 14 12 10 10 10 10 9 9 8 8 8 9 9 9 8 7 7 8 8 10 15 14 15 17 17 16 14 10 11 9 9 8 8 7 6 6 6 10 13 13 14 15 14 13 9 7 9 7 8 7 4
4 4 5 8 11 12 12 11 9 9 11 12 15 16 15 16 20 17 11 11 12 12 12 13 13 13 12 11 11 12 14 11 9 6 9 12 12 11 10 9 9 11 11 10 7 7 8 9 10 7 6 6 6 8 10 15 14 17 15 15 13 13 12 7 7 7 7 7 7 6 7 11 13 14 14 13 13 11 9 11 8 8 8 6 2
4 9 6 8 12 12 10 9 9 9 8 7 9 13 14 18 17 12 15 15 14 13 13 12 12 11 11 11 11 12 13 12 13 14 11 9 9 11 10 9 10 10 10 10 10 10 10 9 8 9 8 7 6 6 6 9 13 14 15 13 12 13 13 12 7 4 5 7 8 11 11 12 12 13 13 11 8 10 12 8 7 8 7 3 3
1 0 4 8 7 7 9 10 7 9 10 9 7 5 9 8 2 2 6 7 9 11 12 13 12 11 12 13 12 10 11 13 14 11 11 10 12 11 11 10 10 9 9 10 10 9 8 8 9 8 8 8 7 7 7 7 7 9 8 10 11 12 12 12 10 8 10 9 10 10 12 11 10 9 6 4 5 7 9 7 7 7 4 4 3
1 2 3 5 6 9 11 12 11 9 11 10 11 9 10 10 9 7 4 3 4 7 8 8 11 12 12 13 14 12 10 8 8 8 9 10 11 11 11 11 10 10 10 9 10 10 8 8 8 8 7 6 6 6 6 6 6 7 7 7 7 6 6 7 5 4 6 5 6 6 7 8 7 10 10 8 8 5 4 4 4 4 5 5 4
2 2 4 5 7 8 10 10 10 7 7 8 8 8 10 12 13 14 11 11 9 6 5 8 10 11 11 12 11 14 14 11 11 11 10 9 9 11 12 13 13 13 12 11 11 11 11 11 11 9 8 7 7 6 7 8 8 7 7 7 6 6 7 7 6 5 5 3 3 4 4 3 3 3 3 2 4 3 4 4 4 4 4 3 3
4 5 2 1 4 5 4 5 6 5 7 7 8 9 11 13 12 14 15 15 14 14 13 11 10 10 11 11 12 12 10 10 10 8 8 9 11 13 13 10 8 10 12 14 12 9 10 10 9 9 10 8 6 8 11 9 10 11 11 9 8 8 8 7 9 10 5 3 4 4 3 3 3 4 4 6 5 5 6 5 4 4 4 3 3
4 3 5 6 6 5 5 6 5 5 7 8 7 7 8 10 11 11 12 13 13 14 15 14 12 11 11 11 11 10 10 10 10 10 9 6 6 4 3 7 8 7 9 9 13 13 13 10 9 8 9 12 13 11 8 13 13 14 14 16 15 14 12 10 10 14 8 6 4 5 5 5 5 5 6 6 7 7 7 6 6 4 3 3 4
6 6 7 7 6 6 6 6 4 3 5 6 6 6 5 5 7 9 10 10 12 11 11 12 12 11 13 13 12 11 10 9 9 9 8 8 7 5 8 9 8 8 12 14 12 9 12 12 11 9 7 6 5 11 14 16 15 16 16 16 15 15 15 14 13 9 3 6 5 6 6 5 6 6 6 7 7 7 7 7 7 4 3 4 4
Wind_Direction
217 216 207 208 200 187 178 168 172 180 189 187 186 185 180 177 175 180 177 174 174 176 178 175 178 181 187 190 194 188 172 173 179 173 172 176 169 162 159 161 161 155 153 153 159 165 171 166 157 167 157 146 146 159 161 154 144 139 130 127 130 119 111 146 146 119 113 71 46 51 43 26 41 60 70 67 86 117 124 130 127 111 123 137 131
219 209 185 189 188 185 179 175 169 178 195 189 191 188 181 177 179 178 176 179 180 179 176 178 183 185 181 184 174 166 165 169 180 181 181 171 169 161 161 163 164 159 154 156 157 160 165 169 170 170 160 155 149 139 144 138 131 128 131 98 85 139 153 177 180 118 47 143 134 88 25 4 29 42 44 22 32 66 127 116 111 125 150 146 131
219 206 193 193 189 184 183 184 186 189 184 193 190 179 186 185 183 179 179 180 182 178 175 179 178 175 173 168 168 146 155 176 175 175 165 168 169 162 160 164 161 156 158 160 157 164 173 165 175 165 160 153 124 128 135 139 146 147 153 142 136 61 121 187 191 93 142 115 95 95 148 88 316 14 17 28 13 29 84 103 109 106 132 167 161
208 200 193 190 186 184 185 188 190 182 184 186 188 191 190 190 185 180 181 180 180 182 177 170 166 162 167 157 158 152 162 155 139 142 154 150 164 160 162 164 163 157 162 162 157 160 167 170 161 158 163 162 147 144 157 161 147 146 142 151 144 143 163 200 210 172 137 136 130 143 187 126 233 253 194 263 7 28 80 112 105 109 92 131 127
202 202 194 180 179 188 191 193 182 183 189 191 191 189 191 191 186 181 179 181 179 176 171 157 153 152 135 112 114 92 87 134 138 161 176 174 162 159 169 167 164 156 161 164 158 160 165 161 156 155 152 156 144 148 163 176 179 171 162 156 170 159 180 188 212 156 189 176 133 105 53 119 215 230 119 258 10 77 18 12 72 96 112 148 150
197 197 191 183 185 193 196 183 182 194 196 198 193 191 187 189 186 182 179 179 177 174 166 162 165 161 155 157 167 171 169 170 185 178 164 178 183 161 157 170 161 154 160 156 154 149 162 167 156 150 149 146 146 155 155 142 161 167 182 169 178 186 163 171 190 218 201 172 172 126 169 174 179 212 113 241 2 35 300 327 326 348 349 105 114
210 207 193 184 187 186 190 189 192 196 202 193 186 188 190 190 188 183 180 177 173 172 168 167 167 171 173 178 180 183 180 192 173 165 171 172 155 167 165 165 166 156 155 149 153 157 156 162 159 153 149 144 133 130 149 169 169 179 170 167 180 169 156 174 185 186 133 269 233 70 79 70 139 131 187 91 185 305 344 237 265 351 353 99 114
194 199 205 200 190 187 189 193 196 200 197 180 187 186 188 191 186 183 178 176 175 169 171 174 172 174 178 181 182 185 184 175 170 161 152 151 159 167 158 167 164 157 149 151 157 156 155 156 152 146 136 140 137 147 156 153 134 115 164 176 165 173 178 173 185 179 172 205 106 79 66 75 79 89 139 162 158 163 248 265 256 302 330 321 313
195 197 196 195 203 206 197 194 199 199 182 184 189 188 185 182 182 180 180 175 174 172 173 178 176 177 179 179 182 185 170 162 153 149 151 154 154 156 161 164 158 152 153 154 162 158 163 158 153 144 140 140 128 129 134 150 159 152 141 142 163 180 185 178 162 189 181 177 118 61 75 64 57 62 100 89 133 115 252 200 226 344 22 316 319
200 198 195 197 197 199 201 202 202 196 189 190 181 169 176 178 182 183 182 177 173 175 176 177 178 175 180 183 178 168 157 146 152 153 154 156 160 162 161 160 159 155 160 158 154 164 159 155 154 151 147 141 132 143 135 131 139 149 162 163 159 159 178 165 182 176 185 166 169 151 122 91 67 63 67 88 55 81 164 203 206 169 188 273 311
199 201 202 199 196 197 199 199 202 190 178 174 178 180 177 178 182 184 183 175 173 176 178 181 179 181 183 182 177 167 162 156 154 155 145 155 154 144 141 173 175 168 159 154 154 154 154 154 149 146 143 143 136 143 154 150 153 143 135 125 139 152 152 138 105 121 135 121 126 166 172 171 175 174 192 184 146 131 71 84 196 189 177 190 4
198 197 201 203 203 207 205 205 195 179 172 177 179 180 179 181 181 182 181 179 176 178 181 183 182 184 185 178 176 171 165 167 167 164 168 170 168 167 165 152 165 162 158 146 156 162 148 146 147 139 139 138 147 143 138 137 133 124 117 123 116 104 118 124 134 133 125 107 104 132 150 144 136 163 180 165 167 188 152 168 161 140 63 252 294
198 198 198 197 199 200 201 204 194 183 184 185 183 180 180 180 182 182 185 181 179 178 184 184 183 185 182 179 176 170 172 169 168 167 173 174 169 162 164 167 157 160 176 165 178 168 151 142 147 146 142 144 137 130 135 134 132 124 127 118 126 139 147 142 139 144 145 147 144 110 124 128 139 128 125 135 99 130 137 113 85 106 161 121 334
200 200 198 197 199 202 200 195 191 191 193 189 183 179 181 183 183 185 185 181 178 181 183 184 188 184 180 177 174 172 174 169 169 170 175 171 168 175 177 171 171 175 170 178 171 165 163 164 157 152 145 138 139 139 139 139 129 128 129 129 127 120 108 112 118 117 103 107 122 117 100 113 112 106 126 130 143 127 141 146 136 38 74 75 335
200 200 200 199 199 198 197 197 196 193 190 186 184 186 183 183 184 185 180 183 182 183 183 186 185 183 180 177 173 173 171 170 171 171 168 166 166 174 179 167 169 171 172 164 162 162 158 153 154 146 143 138 134 132 127 117 115 105 106 111 99 109 113 116 118 124 119 117 105 116 116 86 99 111 121 134 140 157 154 162 138 119 45 29 30
197 201 204 204 199 196 196 197 197 194 189 186 186 186 185 187 187 185 183 183 183 181 185 184 183 178 177 177 177 172 169 167 168 167 166 164 173 185 179 173 166 155 156 155 168 159 157 155 152 147 141 138 139 136 135 130 129 122 114 115 111 115 121 114 118 109 114 116 112 113 97 94 90 98 93 112 115 141 137 142 142 138 138 126 20
197 199 201 206 205 200 197 196 197 193 188 188 189 190 190 185 180 184 185 182 184 185 183 180 176 175 181 179 173 174 173 173 171 166 166 170 174 181 175 168 151 154 157 162 157 163 157 154 148 144 142 140 135 136 135 132 131 126 129 124 120 118 112 117 120 114 118 117 106 109 113 115 104 99 88 89 95 83 94 129 146 155 152 132 150
199 199 200 200 199 199 200 201 198 192 190 192 193 190 188 183 182 182 180 182 188 182 180 178 178 179 177 179 179 177 174 171 166 165 165 164 169 164 150 151 166 164 160 162 158 156 156 151 143 143 141 139 141 138 135 132 123 116 123 119 128 124 109 97 110 119 124 118 113 99 105 101 90 86 90 86 84 90 87 92 96 125 146 149 161
197 202 204 203 201 202 202 201 200 196 194 193 190 182 181 185 185 183 184 187 183 178 175 174 176 178 179 181 177 174 171 168 165 162 162 167 168 168 166 164 154 157 157 158 159 157 152 146 143 141 143 141 137 138 134 129 128 123 124 121 120 120 117 116 128 125 134 120 117 108 96 97 90 95 86 82 81 86 85 76 73 86 77 124 131
197 198 199 201 203 203 203 203 197 191 190 185 180 181 185 185 181 182 181 174 171 175 174 177 180 178 177 174 175 173 171 168 165 162 168 173 172 167 163 159 167 162 164 161 161 160 157 150 149 146 146 143 140 137 137 132 127 131 132 125 129 124 122 130 132 114 122 119 117 116 111 115 112 102 94 95 95 85 93 82 74 69 64 88 106
195 195 195 198 204 207 209 203 194 188 178 171 177 185 186 179 181 180 177 179 180 179 176 179 176 179 173 176 175 173 172 166 165 170 170 170 168 167 170 169 155 166 161 164 165 164 158 154 151 154 154 152 145 142 140 137 133 130 125 129 131 133 129 135 129 115 106 118 120 120 127 131 134 108 114 108 100 101 86 82 80 79 72 50 92
197 192 193 196 202 208 207 191 174 167 172 178 182 179 177 182 184 180 177 180 180 179 180 177 179 178 177 175 173 172 168 166 168 170 169 166 166 169 168 161 168 166 166 166 164 161 157 154 154 155 154 151 150 147 148 142 138 133 131 136 138 139 136 138 132 136 131 126 128 128 135 134 120 113 114 105 116 105 102 88 71 89 85 63 126
208 197 193 196 203 203 190 178 177 179 181 180 178 181 183 183 179 180 181 184 182 181 180 176 177 179 178 173 170 172 169 167 169 171 172 169 168 168 168 167 168 164 168 166 163 161 160 157 156 157 153 153 154 151 152 148 147 149 147 148 152 150 149 149 150 151 150 138 131 136 141 137 121 98 92 102 103 99 98 99 97 97 98 77 58
210 210 202 202 202 188 175 175 177 179 178 179 182 184 182 180 181 181 185 183 179 178 177 175 177 179 175 172 175 172 170 168 172 174 173 171 168 169 169 169 165 161 165 166 163 161 158 160 158 157 157 155 151 149 150 155 155 154 152 154 158 159 157 157 155 153 150 148 147 138 152 142 122 109 113 105 96 102 102 106 103 100 105 96 80
200 207 212 212 193 175 175 177 180 182 182 182 182 182 181 182 181 183 187 181 179 177 176 177 176 175 174 174 176 174 174 172 171 172 174 171 170 167 169 167 158 163 163 158 163 160 158 161 163 162 159 158 158 155 153 153 155 158 157 158 164 163 159 157 155 154 155 151 150 149 154 142 126 119 124 119 125 109 113 108 110 117 109 109 86
200 201 209 204 187 181 179 180 184 183 181 181 183 183 183 182 185 184 180 177 179 177 178 176 175 174 176 177 177 177 178 176 171 169 171 172 169 166 166 165 164 163 162 166 163 165 166 167 165 165 161 161 159 158 157 159 162 162 159 161 160 157 158 156 157 163 158 155 150 150 152 147 137 136 147 140 130 125 119 114 118 117 114 104 100
212 207 206 197 183 185 185 185 185 183 182 183 182 182 182 183 183 181 179 178 177 176 177 176 176 177 176 179 179 181 178 174 171 167 166 169 168 165 165 166 168 165 164 165 167 164 170 166 165 160 163 161 159 157 157 161 163 163 162 160 157 155 155 156 165 165 151 141 146 148 151 154 145 144 147 151 142 133 131 138 144 138 128 106 103
223 216 206 198 195 190 187 186 183 182 181 181 182 182 183 182 181 180 178 177 177 177 176 177 177 180 180 181 181 176 174 173 169 164 165 168 167 168 170 167 164 166 168 167 166 168 166 165 163 164 164 159 158 159 161 164 165 166 164 162 159 157 154 157 160 147 140 146 150 152 157 166 157 158 151 159 146 144 138 137 157 128 124 107 116
218 212 202 197 191 193 192 186 184 178 177 178 179 181 181 183 181 180 179 181 176 175 177 178 179 182 184 179 175 173 171 169 167 164 163 167 170 172 170 167 168 168 168 168 165 163 159 159 160 161 160 162 163 166 166 166 167 170 162 159 160 156 155 155 149 143 142 143 150 157 166 171 168 165 161 156 163 150 146 146 179 138 127 118 117
221 211 202 197 195 190 187 183 180 180 178 177 178 179 181 179 178 179 182 181 172 178 178 180 182 184 180 176 173 171 170 167 168 170 165 167 171 173 171 169 168 168 166 165 166 167 165 164 163 165 163 165 171 168 173 171 169 164 163 158 157 159 158 153 149 144 149 158 159 163 177 176 172 160 154 157 158 156 154 152 165 157 143 131 140
250 235 212 200 194 189 183 181 181 181 180 178 180 181 178 176 176 178 181 179 176 177 181 183 185 181 177 173 171 170 167 169 170 167 166 168 174 173 170 168 167 168 168 169 168 167 170 167 167 166 168 171 173 176 173 171 169 163 158 160 162 163 156 148 149 155 162 171 176 176 177 174 159 152 153 158 162 165 153 150 161 169 164 153 152
220 253 268 243 201 185 180 182 182 184 182 179 178 175 174 179 178 180 179 174 178 181 183 185 182 177 175 173 171 168 168 168 167 170 168 169 170 170 169 167 168 173 175 169 172 173 168 168 167 167 170 174 176 179 170 171 168 165 162 160 160 156 154 152 145 157 169 170 173 176 189 158 151 160 164 165 172 171 166 154 159 175 195 206 197
164 166 184 190 195 197 190 183 181 181 181 183 177 173 180 180 180 180 169 173 181 182 183 183 180 177 175 173 168 168 168 167 170 168 167 165 168 171 173 172 175 177 170 174 161 152 172 169 168 169 176 177 178 178 171 169 167 166 164 156 154 149 151 158 164 175 172 168 169 166 169 167 179 175 166 168 175 181 171 164 160 173 200 208 226
131 140 142 149 141 153 175 182 175 171 172 162 179 188 190 182 176 169 171 179 180 182 183 182 179 176 172 171 169 168 167 167 165 166 167 168 168 176 179 180 176 171 170 160 166 178 169 172 175 176 176 179 179 176 171 169 170 168 161 150 155 164 169 162 169 174 171 169 170 168 167 181 213 189 159 169 166 159 142 124 104 97 134 202 223
192 150 154 157 160 152 149 158 165 161 158 156 170 178 161 168 171 174 178 174 180 181 183 181 180 177 171 169 169 170 166 164 165 166 168 171 177 180 181 181 176 172 169 169 174 170 174 174 178 175 173 178 186 171 172 172 169 163 163 160 159 158 160 166 174 175 173 173 176 174 174 181 183 194 181 175 161 163 142 135 118 72 24 3 69
253 214 174 166 171 171 170 170 156 157 165 166 167 155 161 182 181 178 175 176 178 181 184 182 182 178 174 171 168 171 169 166 165 166 170 177 182 184 184 181 176 171 168 169 175 170 171 176 175 172 173 181 178 172 172 169 166 167 164 155 154 161 163 168 173 182 183 184 178 175 177 180 180 190 195 186 177 155 145 149 140 93 35 358 256
244 233 271 231 180 168 164 150 159 167 167 172 158 151 156 169 189 188 180 179 178 183 186 186 185 179 175 172 169 169 170 166 165 168 175 177 184 189 186 177 175 167 162 171 175 176 174 173 172 175 177 177 171 177 172 167 171 168 158 155 162 162 168 170 182 188 188 181 184 183 181 175 181 197 192 186 176 155 147 155 155 142 282 38 230
239 241 216 242 257 194 166 167 165 170 173 163 154 155 162 177 192 193 184 184 186 190 190 187 186 181 175 171 170 170 167 166 166 176 182 187 187 186 185 180 173 163 170 181 172 166 168 171 172 177 179 173 177 174 173 174 172 163 162 163 166 166 174 178 183 191 185 181 191 196 182 178 184 202 188 186 182 164 159 163 158 152 151 193 263
215 215 214 209 205 187 171 169 169 173 173 168 167 164 168 182 190 194 191 190 193 194 191 189 185 177 173 169 167 169 169 165 170 184 189 190 189 188 182 170 165 165 170 154 150 166 167 166 173 173 166 169 170 172 176 172 164 171 171 165 161 166 172 187 180 187 182 178 203 208 197 188 188 194 184 187 187 179 167 171 169 149 162 200 235
227 188 195 201 190 152 150 167 181 191 180 176 171 171 176 183 193 194 194 196 197 197 193 184 171 168 168 163 161 160 162 166 173 186 188 187 183 171 133 119 130 153 144 159 169 172 172 169 160 166 178 174 163 169 179 177 171 177 175 164 167 163 179 185 188 182 179 195 205 210 207 195 195 185 184 186 190 186 173 174 148 161 177 215 220
312 297 156 167 180 178 184 188 194 192 190 185 176 175 182 188 189 193 200 202 200 190 173 168 162 160 160 160 157 153 157 179 186 180 175 173 171 154 129 157 159 145 150 159 160 150 140 139 158 169 172 174 172 170 180 180 179 180 178 167 176 181 178 176 180 183 181 191 206 209 204 193 192 187 186 187 190 195 178 165 175 180 196 195 146
310 300 271 183 164 190 198 206 204 194 187 184 182 182 187 187 189 199 205 202 185 170 163 155 154 156 157 158 158 158 163 170 179 169 167 160 129 125 154 149 134 146 148 149 146 148 149 151 166 169 177 178 178 176 171 187 182 180 179 177 176 187 175 169 172 179 179 188 195 195 189 190 189 191 190 190 193 194 187 171 199 200 173 149 148
271 194 220 184 186 203 205 211 203 192 187 186 182 186 188 186 193 204 200 184 171 163 160 159 156 156 158 152 148 145 159 169 171 168 164 162 149 142 146 152 144 126 128 141 156 160 157 158 160 171 174 174 174 181 178 178 186 182 185 184 177 169 170 167 168 180 188 196 189 189 190 181 185 193 195 194 196 196 184 204 206 181 166 167 134
284 254 215 192 195 201 208 206 196 192 192 187 185 190 190 191 202 199 176 173 172 170 165 162 162 159 150 141 144 150 153 152 139 139 156 149 149 147 147 137 138 148 152 152 152 161 165 165 166 161 163 170 177 179 187 181 179 186 188 188 177 164 161 170 168 182 185 185 181 189 189 181 189 195 200 200 200 188 199 209 186 172 160 158 142
305 279 240 215 212 205 198 195 188 180 179 191 203 197 189 199 205 178 184 180 175 168 163 159 152 143 134 137 145 152 156 157 157 160 166 154 142 137 139 151 151 153 155 157 168 177 176 168 158 167 174 176 175 179 175 188 184 185 187 187 179 164 172 160 167 183 171 187 194 185 182 180 190 198 203 206 203 206 211 195 174 160 161 146 156
104 336 256 218 195 171 165 167 163 158 150 144 139 157 198 227 312 226 187 169 160 162 158 150 140 134 136 140 143 154 160 163 163 164 156 151 147 147 154 158 157 161 163 163 169 172 174 164 168 171 175 177 175 173 175 174 184 188 191 190 182 178 174 176 171 174 185 183 180 179 184 188 191 194 184 184 197 214 217 192 167 167 170 173 166
188 211 209 199 168 166 168 166 163 162 155 152 150 143 137 125 117 91 86 109 138 128 113 118 133 132 137 145 149 156 155 150 146 141 146 150 155 155 154 160 166 164 167 168 166 167 163 167 169 173 165 162 172 178 173 168 171 173 181 179 181 191 176 160 139 140 143 157 167 172 183 189 193 190 191 196 203 198 177 185 193 185 184 191 187
304 252 198 188 178 170 168 164 157 144 130 128 125 126 128 124 125 129 126 113 91 76 97 123 127 132 140 147 150 157 156 158 160 154 152 157 166 166 163 169 176 174 169 171 171 174 174 171 181 175 159 159 173 184 186 184 182 175 173 168 172 165 164 167 156 160 153 142 127 102 95 91 120 115 173 176 210 198 200 191 198 193 202 200 205
8 331 313 186 148 142 134 110 99 112 121 123 129 139 141 135 139 145 148 145 148 147 141 140 143 146 149 152 152 157 161 154 153 159 160 163 168 171 175 184 186 178 178 170 170 172 178 186 164 162 166 175 174 192 212 189 178 175 167 165 171 180 174 174 170 153 122 86 91 93 92 106 134 161 177 202 209 204 220 214 209 212 208 202 197
47 35 28 33 34 49 73 88 101 113 123 130 137 140 146 146 146 151 155 158 154 150 148 149 151 151 148 147 149 153 153 156 156 154 146 113 55 96 147 167 172 153 138 151 162 177 182 167 172 182 175 176 193 206 138 156 174 175 177 178 181 175 174 166 157 159 149 139 147 152 171 165 168 168 191 204 207 204 209 218 227 220 200 203 213
53 60 42 43 47 65 70 65 66 89 120 135 137 139 141 151 157 162 165 158 153 152 152 148 145 149 153 150 151 150 152 151 152 151 148 141 130 73 82 116 131 145 148 151 163 135 144 169 172 170 186 192 120 125 156 173 172 180 182 184 180 174 168 162 152 139 149 163 169 177 193 190 189 186 196 205 201 199 207 209 227 228 220 220 229